Погода Гусь-Хрустальный

Погода Гусь-Хрустальный : погода сейчас, прогноз погоды и архив. Всё, что Вы хотите узнать о погоде Гусь-Хрустальный!

Хотите узнать прогноз погоды Гусь-Хрустальный? Тогда Вам сюда: Погода Гусь-Хрустальный

Поиск расширенной информации на нашем сайте:

Другие новости

Новости СМИ2

Главная страница сайта

Новости сайта

03.07.2017

Напоминаем, что на нашем специализированном сайте Метеоцентр.Азия вы можете получить высокодетализированные автоматические прогнозы погоды по пунктам России, СНГ и мира в авиационном формате (включающие направление и скорость ветра, видимость, явления погоды, количество и форму облачности, нижнюю и верхнюю границу облачности).

Рекомендуем: Скорый ремонт компьютеров в раменском длится не больше 2 часов.

Погода Гусь-Хрустальный - сегодня

Время (UTC), дата Ветер
(°,м/с) 
Видим.   Явления Облачность Т
(°С)
Тd
(°С)
f(%) Тe
(°С)
Pmin
(гПа)
dP
(гПа)
Po
(мм)
O2
(г/м3)
Тmin Tmax R s Состояние
почвы
06 15.08.17 360 (С) 20000 м  {гроза, ливн. осадки}  8/5 300 м верхняя 
[Cu med, cong|Cs]
+19 +15.8 82 +30  1021.8  1.4  754  281  +17.2         
09 15.08.17 340 (С) 20000 м    8/6 300 м верхняя 
[Cu med, cong|Cs]
+23 +13.7 56 +29  1022.5  1.4  755  278           
12 15.08.17 010 (С) 20000 м    8/6 300 м верхняя 
[Cu med, cong|Cs]
+23.2 +12.5 51 +28  1023.1  0.6  755  278           
15 15.08.17 010 (С) 20000 м    8/6 300 м верхняя 
[Cu med, cong|Cs]
+23 +10 44 +24  1023.9  0.7  756  279    +25.1       
18 15.08.17 360 (С) 20000 м    ясно 
+17.7 +11.5 67 +22  1025.9  1.8  757  284           
21 15.08.17 340 (С) 20000 м    ясно 
+15 +9.5 70 +16  1026.8  0.7  758  288           
00 16.08.17 010 (С) 20000 м    ясно 
+12.4 +9.3 81 +14  1027.3  0.3  758  291           
03 16.08.17 360 (С) 20000 м    ясно 
+11.9 +9.5 85 +13  1028.1  0.3  759  291  +11.6        влажная 
06 16.08.17 040 (СВ) 20000 м    ясно 
+19.5 +12.1 62 +25  1028.2  0.5  759  283           
09 16.08.17 060 (СВ) 20000 м    8/6 300 м верхняя 
[Cu med, cong|Cs]
+24.2 +11.6 45 +27  1028  759  279           
12 16.08.17 060 (СВ) 20000 м    6/4 300 м верхняя 
[Cu med, cong|Cs]
+25.6 +9 35 +26  1027.3  -0.6  759  278           
15 16.08.17 080 (В) 20000 м    5/4 300 м верхняя 
[Cu med, cong|Ci fib]
+24.3 +9.4 39 +25  1026.7  -0.6  758  279    +26       
18 16.08.17 тихо ()   20000 м    ясно 
+16.4 +12.3 77 +21  1027.5  0.3  758  286           
21 16.08.17 050 (СВ) 20000 м    ясно 
+13.8 +12.2 90 +19  1028.1  0.5  759  289           
00 17.08.17 тихо ()   20000 м    ясно 
+11.8 +10.8 94 +14  1028.8  0.5  759  291           
03 17.08.17 тихо ()   20000 м    5/4 300 м верхняя 
[Cu med, cong|Cs]
+11.7 +10.9 95 +14  1029.1  0.3  759  291  +11.5        влажная 
06 17.08.17 120 (ЮВ) 20000 м    ясно 
+21.7 +10.9 50 +24  1028.6  0.1  759  282           
09 17.08.17 080 (В) 20000 м    5/4 300 м верхняя 
[Cu med, cong|Ci fib]
+23.4 +8.1 38 +23  1028.1  -0.4  759  280           
12 17.08.17 070 (В) 20000 м    5/4 300 м верхняя 
[Cu hum|Ci fib]
+25.8 +7.2 31 +26  1027  -0.9  758  278           
15 17.08.17 110 (В) 20000 м    ясно 
+24.3 +5.3 29 +24  1026.1  -1  758  280    +25.8       
18 17.08.17 тихо ()   20000 м    ясно 
+15 +11.7 81 +18  1026.8  0.2  758  287           
21 17.08.17 тихо ()   10 км    ясно 
+12 +10.7 92 +14  1027  758  291           
00 18.08.17 тихо ()   10 км    ясно 
+9.9 +9.1 95 +10  1027.3  0.2  758  293           
03 18.08.17 тихо ()   20000 м    ясно 
+9.4 +8.7 95 +9  1027.5  0.2  758  294  +8.8        влажная 
06 18.08.17 130 (ЮВ) 20000 м    3/0 верхняя 
[Ci fib]
+21.9 +12.2 54 +26  1026.6  0.1  758  280           
Время (UTC), дата Ветер
(°,м/с) 
Видим.   Явления Облачность Т
(°С)
Тd
(°С)
f(%) Тe
(°С)
Pmin
(гПа)
dP
(гПа)
Po
(мм)
O2
(г/м3)
Тmin Tmax R s Состояние
почвы

Для получения пояснительной информации подведите курсор к названию столбца.

ПОГОДА Гусь-Хрустальный - архив

Всё, что Вы хотите узнать о погоде Гусь-Хрустальный - удобно и подробно!

Выберите нужную дату (начиная с 1 января 2015* года) и нажмите кнопку "Найти".
Будут отображены архивные сводки погоды по пункту Гусь-Хрустальный, начиная с указанной даты.


Отображать данные в формате CSV (для использования в таблицах Excel)


Внимание! Наш архив погоды предназначен исключительно для личного некоммерческого использования в познавательных целях. Если Вам необходимы официальные справки о состоянии погоды (для производственных, юридических, коммерческих и т.п. целей), обращайтесь в органы Росгидромета.

*Примечание: данная дата относится к архиву по метеостанциям СССР (Россия, СНГ, Балтия).
Архив по метеостанциям Зарубежной Европы и Азии (кроме Китая) хранится 10 дней, по другим регионам земного шара (Китай, Африка, Америка, Австралия, Океания) - 1 день.

Гусь-Хрустальный - район местоположения метеостанции


Название, широта, долгота, высота метеостанции:
Гусь-Хрустальный 55.6°ш. 40.6°д. 136 м над ур. моря [Российская Федерация]

Дополнительная информация

В oтличие oт бoльшинства пoгoдных сайтoв мы публикуем пoдрoбную метеoинфoрмацию в детальнoм прoфессиoнальнoм фoрмате.

Характеристики температуры и влажнoсти вoздуха измеряются на высoте 2 м в тени вдали oт зданий и деревьев.
Скoрoсть ветра измеряется на высoте 10 м (на урoвне рoста челoвека скoрoсть ветра ниже в 1.5-2 раза). Если метеoстанция нахoдится в гoрoде или в лесу, тo скoрoсть ветра занижена на 2-4 м/с пo сравнению с oткрытым местoм. Скoрoсть ветра над акватoриями крупных рек и oзёр, а также на вершинах хoлмoв на 2-5 м/с выше, чем в oбычных услoвиях.
Атмoсфернoе давление в разных тoчках местнoсти мoжет значительнo oтличаться oт давления на метеoстанции, в зависимoсти oт услoвий рельефа (при пoдъёме на 10 м давление пoнижается примернo на 1 мм рт.ст.).